User: anonymous   Login
Location: Melbourne
(37.8170°S, 144.9670°E)
Time: 23:53:09
(UTC+10:00)
Language:

ADEOS Rocket - Orbit

View from above orbital plane
View from above orbital plane
View from above satellite
View from above satellite

Ground track
Ground track

The orbit data is extracted from the following two-line orbital elements,

1 24279U 96046C   16269.96745882  .00000041  00000-0  98648-4 0  9996
2 24279  98.7138 241.0652 0299088 242.3797 183.4117 13.47057985988674
Epoch (UTC): 25 September 2016 23:13:08
Eccentricity: 0.0299088
inclination: 98.7138°
perigee height: 860 km
apogee height: 1306 km
right ascension of ascending node: 241.0652°
argument of perigee: 242.3797°
revolutions per day: 13.47057985
mean anomaly at epoch: 183.4117°
orbit number at epoch: 98867

The dashed part of the orbit path shows where the satellite is in the earth's shadow,  

DLR